{"data":{"norad_id":65095,"intl_designator":"2025-167T","name":"STARLINK-34768","alt_names":[],"object_type":"PAYLOAD","status":"ACTIVE","operator":null,"country":"US","launch_date":"2025-08-04","launch_site_code":"AFETR","launch_vehicle":null,"mission":null,"orbit_class":"UNKNOWN","rcs_meters":null,"size_class":null,"mass_kg":null,"dimensions":null,"purposes":["comms"],"wikipedia_slug":null,"has_3d_model":false,"image_url":null,"decayed_at":null,"tle_current":{"epoch":"2026-05-25T04:00:03.998880Z","epoch_age_seconds":67452,"freshness":"FRESH","line1":"1 65095U 25167T   26145.16671295  .00060525  00000+0  13909-2 0  9992","line2":"2 65095  53.1591  28.9582 0001077  77.6951 282.1937 15.42125590  5781","mean_motion":15.4212559,"eccentricity":0.0001077,"inclination_deg":53.1591,"raan_deg":28.9582,"arg_perigee_deg":77.6951,"mean_anomaly_deg":282.1937,"bstar":0.0013909,"rev_number":578,"period_min":93.37760875883,"perigee_km":439.10277726656,"apogee_km":440.5713688819,"semimajor_km":6817.9740730742,"source":"CELESTRAK","updated_at":"2026-05-25T13:38:20.685915Z"}}}